Change the Weather History Date:

Friday, October 5, 2012

  Actual Average Record
Temperature  
Mean Temperature 40 °F -  
Max Temperature 45 °F 59 °F 80 °F (2005)
Min Temperature 35 °F 37 °F 19 °F (1952)
Degree Days  
Heating Degree Days 25    
Moisture  
Dew Point 25 °F    
Average Humidity 58    
Maximum Humidity 69    
Minimum Humidity 46    
Precipitation  
Precipitation 0.00 in - - ()
Sea Level Pressure  
Sea Level Pressure 29.96 in    
Wind  
Wind Speed 16 mph (West)    
Max Wind Speed 23 mph    
Max Gust Speed 37 mph    
Visibility 10 miles    
Events      
Averages and records for this station are not official NWS values.
T = Trace of Precipitation, MM = Missing Value Source: NWS Daily Summary

Daily Weather History Graph

Daily Weather History Graph

Search for Another Location

Airport or City:

Trip Planner

Search our weather history database for the weather conditions in past years. The results will help you decide how hot, cold, wet, or windy it might be!

Date:

Astronomy

Oct. 05, 2012 Rise Set
Actual Time 7:00 AM CDT 6:28 PM CDT
Civil Twilight 6:30 AM CDT 6:57 PM CDT
Nautical Twilight 5:56 AM CDT 7:31 PM CDT
Astronomical Twilight 5:22 AM CDT 8:06 PM CDT
Moon 9:39 PM CDT (10/5) 12:20 PM CDT (10/5)
Length of Visible Light 12h 27m
Length of Day
11h 28m
Waning Gibbous, 74% of the Moon is Illuminated
Oct 5
Waning Gibbous
Oct 8
Last Quarter
Oct 15
New
Oct 21
First Quarter
Oct 29
Full

Hourly Weather History & Observations

Time (CDT) Temp. Windchill Dew Point Humidity Pressure Visibility Wind Dir Wind Speed Gust Speed Precip Events Conditions
12:15 AM 39.2 °F 30.5 °F 27.9 °F 64% 29.98 in 10.0 mi West 16.1 mph 23.0 mph N/A   Overcast
12:35 AM 38.5 °F 29.9 °F 26.6 °F 62% 29.98 in 10.0 mi West 15.0 mph 24.2 mph N/A   Mostly Cloudy
12:55 AM 37.8 °F 28.0 °F 26.6 °F 64% 29.98 in 10.0 mi West 18.4 mph 24.2 mph N/A   Scattered Clouds
1:15 AM 37.4 °F 28.9 °F 26.6 °F 65% 29.98 in 10.0 mi West 13.8 mph 23.0 mph N/A   Scattered Clouds
1:35 AM 37.0 °F 28.5 °F 26.6 °F 66% 29.98 in 10.0 mi West 13.8 mph 23.0 mph N/A   Scattered Clouds
1:55 AM 36.3 °F 26.1 °F 26.2 °F 67% 29.98 in 10.0 mi West 18.4 mph 25.3 mph N/A   Scattered Clouds
2:15 AM 35.8 °F 26.9 °F 25.9 °F 67% 29.98 in 10.0 mi West 13.8 mph 21.9 mph N/A   Mostly Cloudy
2:35 AM 35.4 °F 26.4 °F 26.1 °F 69% 29.97 in 10.0 mi West 13.8 mph 19.6 mph N/A   Overcast
2:55 AM 36.1 °F 26.2 °F 26.1 °F 67% 29.98 in 10.0 mi West 17.3 mph 20.7 mph N/A   Overcast
3:15 AM 36.5 °F 27.0 °F 26.2 °F 66% 29.98 in 10.0 mi West 16.1 mph 26.5 mph N/A   Overcast
3:35 AM 36.7 °F 28.0 °F 26.2 °F 66% 29.98 in 10.0 mi West 13.8 mph 23.0 mph N/A   Overcast
3:55 AM 36.9 °F 27.1 °F 26.4 °F 66% 29.97 in 10.0 mi West 17.3 mph 25.3 mph N/A   Overcast
4:15 AM 36.9 °F 28.2 °F 26.6 °F 66% 29.97 in 10.0 mi West 13.8 mph 20.7 mph N/A   Overcast
4:35 AM 36.7 °F 27.6 °F 26.6 °F 67% 29.96 in 10.0 mi West 15.0 mph 20.7 mph N/A   Overcast
4:55 AM 36.7 °F 26.9 °F 26.4 °F 66% 29.97 in 10.0 mi West 17.3 mph 20.7 mph N/A   Overcast
5:15 AM 36.1 °F 26.5 °F 26.1 °F 67% 29.97 in 10.0 mi West 16.1 mph 21.9 mph N/A   Overcast
5:35 AM 36.5 °F 27.8 °F 25.9 °F 65% 29.96 in 10.0 mi West 13.8 mph 21.9 mph N/A   Overcast
5:55 AM 36.1 °F 27.3 °F 26.1 °F 67% 29.96 in 10.0 mi West 13.8 mph 21.9 mph N/A   Overcast
6:15 AM 35.8 °F 27.3 °F 26.1 °F 68% 29.96 in 10.0 mi West 12.7 mph 21.9 mph N/A   Overcast
6:35 AM 35.6 °F 25.9 °F 25.7 °F 67% 29.96 in 10.0 mi West 16.1 mph 21.9 mph N/A   Overcast
6:55 AM 36.1 °F 28.2 °F 25.7 °F 66% 29.96 in 10.0 mi West 11.5 mph 20.7 mph N/A   Overcast
7:15 AM 36.1 °F 26.9 °F 25.7 °F 66% 29.96 in 10.0 mi West 15.0 mph 20.7 mph N/A   Overcast
7:35 AM 36.5 °F 27.0 °F 25.7 °F 65% 29.96 in 10.0 mi West 16.1 mph 21.9 mph N/A   Overcast
7:55 AM 36.9 °F 28.2 °F 25.5 °F 64% 29.96 in 10.0 mi West 13.8 mph 25.3 mph N/A   Overcast
8:15 AM 37.4 °F 29.8 °F 25.7 °F 63% 29.96 in 10.0 mi West 11.5 mph 21.9 mph N/A   Overcast
8:35 AM 38.3 °F 28.7 °F 25.5 °F 60% 29.96 in 10.0 mi West 18.4 mph 31.1 mph N/A   Overcast
8:55 AM 38.3 °F 27.6 °F 24.6 °F 58% 29.95 in 10.0 mi West 23.0 mph 36.8 mph N/A   Mostly Cloudy
9:15 AM 39.2 °F 29.6 °F 25.0 °F 57% 29.96 in 10.0 mi West 19.6 mph 31.1 mph N/A   Mostly Cloudy
9:35 AM 39.6 °F 30.3 °F 25.3 °F 57% 29.95 in 10.0 mi West 18.4 mph 32.2 mph N/A   Mostly Cloudy
9:55 AM 41.2 °F 33.0 °F 25.7 °F 54% 29.96 in 10.0 mi West 16.1 mph 24.2 mph N/A   Mostly Cloudy
10:15 AM 41.2 °F 31.4 °F 25.2 °F 53% 29.95 in 10.0 mi West 23.0 mph 32.2 mph N/A   Mostly Cloudy
10:35 AM 41.9 °F 33.7 °F 25.2 °F 52% 29.95 in 10.0 mi West 17.3 mph 25.3 mph N/A   Mostly Cloudy
10:55 AM 43.2 °F 34.7 °F 25.5 °F 50% 29.96 in 10.0 mi West 19.6 mph 28.8 mph N/A   Mostly Cloudy
11:15 AM 43.9 °F 36.8 °F 25.5 °F 48% 29.95 in 10.0 mi West 15.0 mph 24.2 mph N/A   Mostly Cloudy
11:35 AM 43.2 °F 34.7 °F 25.2 °F 49% 29.95 in 10.0 mi West 19.6 mph 26.5 mph N/A   Overcast
11:55 AM 43.9 °F 35.4 °F 24.8 °F 47% 29.94 in 10.0 mi West 20.7 mph 26.5 mph N/A   Mostly Cloudy
12:15 PM 44.8 °F 38.7 °F 25.9 °F 48% 29.94 in 10.0 mi West 12.7 mph 23.0 mph N/A   Mostly Cloudy
12:35 PM 44.2 °F 36.2 °F 25.9 °F 49% 29.94 in 10.0 mi West 19.6 mph 25.3 mph N/A   Mostly Cloudy
12:55 PM 45.1 °F 38.8 °F 25.2 °F 46% 29.93 in 10.0 mi West 13.8 mph 27.6 mph N/A   Mostly Cloudy
1:35 PM 43.7 °F 36.3 °F 25.5 °F 49% 29.93 in 10.0 mi West 16.1 mph 26.5 mph N/A   Overcast
1:55 PM 43.5 °F 35.8 °F 25.3 °F 49% 29.92 in 10.0 mi West 17.3 mph 28.8 mph N/A   Overcast
2:15 PM 43.7 °F 35.7 °F 25.0 °F 48% 29.92 in 10.0 mi West 18.4 mph 26.5 mph N/A   Overcast
2:35 PM 43.7 °F 35.7 °F 24.8 °F 47% 29.93 in 10.0 mi West 18.4 mph 27.6 mph N/A   Overcast
2:55 PM 43.3 °F 35.5 °F 24.6 °F 48% 29.93 in 10.0 mi West 17.3 mph 27.6 mph N/A   Overcast
3:15 PM 43.3 °F 35.2 °F 24.8 °F 48% 29.92 in 10.0 mi West 18.4 mph 28.8 mph N/A   Overcast
3:35 PM 43.9 °F 35.7 °F 24.8 °F 47% 29.92 in 10.0 mi West 19.6 mph 28.8 mph N/A   Overcast
3:55 PM 42.6 °F 33.5 °F 24.6 °F 49% 29.92 in 10.0 mi WNW 21.9 mph 27.6 mph N/A   Overcast
4:15 PM 42.4 °F 33.3 °F 24.1 °F 48% 29.94 in 10.0 mi West 21.9 mph 28.8 mph N/A   Overcast
4:35 PM 41.0 °F 31.4 °F 24.1 °F 51% 29.95 in 10.0 mi West 21.9 mph 26.5 mph N/A   Overcast
4:55 PM 40.3 °F 31.0 °F 23.9 °F 52% 29.95 in 10.0 mi West 19.6 mph 24.2 mph N/A   Overcast
5:15 PM 40.1 °F 31.3 °F 23.9 °F 52% 29.95 in 10.0 mi West 17.3 mph 21.9 mph N/A   Overcast
5:35 PM 39.6 °F 31.0 °F 23.5 °F 53% 29.95 in 10.0 mi WNW 16.1 mph 26.5 mph N/A   Overcast
5:55 PM 39.2 °F 30.2 °F 23.4 °F 53% 29.96 in 10.0 mi West 17.3 mph 25.3 mph N/A   Overcast
6:15 PM 38.3 °F 29.0 °F 23.4 °F 55% 29.96 in 10.0 mi WNW 17.3 mph 29.9 mph N/A   Overcast
6:35 PM 37.8 °F 28.3 °F 23.0 °F 55% 29.96 in 10.0 mi West 17.3 mph 24.2 mph N/A   Overcast
6:55 PM 37.6 °F 27.1 °F 22.8 °F 55% 29.96 in 10.0 mi WNW 20.7 mph 29.9 mph N/A   Overcast
7:15 PM 37.4 °F 28.2 °F 22.1 °F 54% 29.97 in 10.0 mi West 16.1 mph 26.5 mph N/A   Overcast
7:35 PM 37.0 °F 27.4 °F 22.5 °F 56% 29.97 in 10.0 mi West 17.3 mph 25.3 mph N/A   Overcast
7:55 PM 36.7 °F 28.0 °F 22.6 °F 57% 29.97 in 10.0 mi West 13.8 mph 24.2 mph N/A   Overcast
8:15 PM 36.5 °F 28.2 °F 23.0 °F 58% 29.97 in 10.0 mi West 12.7 mph 18.4 mph N/A   Overcast
8:35 PM 36.5 °F 26.3 °F 23.0 °F 58% 29.97 in 10.0 mi West 18.4 mph 24.2 mph N/A   Overcast
8:55 PM 36.5 °F 27.4 °F 23.5 °F 59% 29.97 in 10.0 mi West 15.0 mph 23.0 mph N/A   Overcast
9:15 PM 36.1 °F 26.9 °F 23.7 °F 61% 29.96 in 10.0 mi West 15.0 mph 20.7 mph N/A   Overcast
9:35 PM 35.4 °F 26.0 °F 23.9 °F 63% 29.96 in 10.0 mi West 15.0 mph 18.4 mph N/A   Overcast
9:55 PM 35.6 °F 26.2 °F 24.3 °F 63% 29.95 in 10.0 mi West 15.0 mph 19.6 mph N/A   Overcast
10:35 PM 35.6 °F 25.5 °F 24.8 °F 65% 29.95 in 10.0 mi West 17.3 mph 24.2 mph N/A   Overcast
10:55 PM 36.0 °F 27.5 °F 25.2 °F 65% 29.95 in 10.0 mi West 12.7 mph 23.0 mph N/A   Overcast
11:15 PM 35.8 °F 26.5 °F 25.3 °F 66% 29.95 in 10.0 mi West 15.0 mph 21.9 mph N/A   Overcast
11:35 PM 35.8 °F 26.5 °F 25.7 °F 67% 29.94 in 10.0 mi West 15.0 mph 25.3 mph N/A   Overcast
11:55 PM 35.6 °F 25.9 °F 26.2 °F 69% 29.94 in 10.0 mi WNW 16.1 mph 21.9 mph N/A   Overcast